Dewpoint
64 65 71 72 71 71 72 73 73 72 72 72 71 71 69 69 69 69 68 67 66 66 65 64 62 62 62 62 65 68 66 65 66 67 68 67 64 60 64 67 67 63 67
64 65 71 69 71 71 72 73 73 73 72 72 70 69 68 68 68 68 67 66 65 65 64 63 63 62 63 64 64 64 63 64 66 68 68 67 68 67 66 66 65 61 65
63 65 68 71 71 71 72 72 73 72 72 71 70 69 68 68 67 66 65 65 64 64 63 63 63 62 62 62 61 61 61 62 65 68 67 62 63 67 68 67 67 67 67
62 64 66 70 70 72 72 71 72 72 71 69 68 67 67 66 65 65 64 64 64 63 63 63 63 61 60 59 60 59 61 64 65 66 62 59 60 65 65 66 66 66 66
59 63 65 70 71 72 71 71 72 71 70 68 67 66 65 65 65 64 64 64 64 63 63 62 62 61 60 64 64 64 62 62 63 58 59 58 58 62 64 64 63 64 64
58 62 68 70 71 72 71 71 72 71 69 67 67 66 65 64 64 64 64 64 63 63 62 62 62 62 63 64 63 62 61 62 61 57 61 61 57 62 64 64 64 63 63
58 61 68 70 71 72 71 72 71 70 68 67 66 66 65 64 64 63 63 63 63 63 62 62 63 63 64 63 62 60 62 63 60 62 63 62 63 64 64 63 64 64 64
63 62 67 69 70 71 71 72 71 70 69 67 66 65 65 64 63 62 62 62 63 63 62 62 64 64 63 62 60 61 62 60 60 60 60 60 63 61 61 62 62 62 62
65 62 66 67 69 70 70 70 70 69 69 66 67 66 66 64 62 61 62 62 63 63 62 62 63 64 63 62 61 61 60 61 54 57 56 57 62 59 59 59 59 59 59
64 64 65 65 69 69 69 69 69 68 67 67 66 66 64 63 62 62 63 64 64 62 63 62 62 62 63 62 62 60 59 60 55 55 56 54 58 60 60 59 58 58 58
65 64 62 63 68 68 68 68 68 67 66 66 65 63 61 58 59 60 61 63 61 63 63 62 62 63 64 63 62 61 60 53 53 53 54 59 57 57 59 57 58 58 57
62 63 60 62 68 67 67 66 65 64 63 62 60 58 56 56 56 56 60 63 63 63 63 62 62 64 62 59 58 60 55 52 52 54 53 60 59 57 56 57 57 56 57
61 62 61 64 67 66 66 64 63 63 61 60 58 56 53 54 55 56 59 59 60 60 58 61 60 60 55 55 54 53 49 54 55 56 59 60 56 57 56 57 56 56 57
60 62 63 64 66 66 65 63 62 61 59 58 57 54 50 51 52 54 54 56 56 56 59 57 55 54 53 53 52 46 48 54 53 54 57 60 57 56 56 56 56 56 56
57 62 63 64 65 66 64 62 60 59 57 55 53 51 50 50 50 51 51 53 53 53 55 53 51 48 48 47 45 45 47 51 52 54 55 58 59 57 56 56 56 55 57
51 61 62 63 65 65 64 61 59 56 55 53 51 49 46 49 49 50 49 50 48 49 49 49 48 48 48 45 44 44 46 49 52 53 53 55 58 57 54 54 55 56 56
50 59 61 63 65 64 63 62 56 54 52 50 49 44 44 47 46 46 46 46 45 46 46 46 47 48 48 46 44 44 45 47 49 51 50 51 52 55 54 55 55 56 55
52 57 60 61 63 64 63 61 54 53 47 46 45 44 43 44 45 45 45 45 46 47 47 47 48 49 49 47 46 46 46 46 45 46 46 46 48 50 54 56 56 56 55
54 60 60 60 58 57 57 62 55 48 43 43 45 45 43 44 45 46 45 45 46 47 48 48 48 49 49 49 48 48 45 47 46 44 42 41 45 49 50 52 53 53 53
59 60 58 57 56 55 55 56 55 48 43 43 44 44 44 46 46 46 46 45 46 47 47 47 47 48 50 49 46 46 46 46 45 43 41 41 42 44 46 47 47 49 49
57 57 57 56 55 55 54 52 51 51 45 45 45 44 44 45 46 46 47 46 46 45 44 45 46 47 49 48 48 46 45 44 43 43 42 41 41 42 42 42 44 45 43
55 55 55 54 55 55 54 53 53 51 50 46 47 46 46 46 48 47 46 46 46 45 42 43 45 48 48 48 46 44 41 41 41 41 41 39 39 41 40 38 36 35 37
54 54 53 54 53 54 54 53 52 52 52 46 46 47 46 46 48 48 46 46 46 45 44 44 46 47 46 47 46 44 41 40 40 41 39 39 37 39 39 36 33 32 33
55 54 54 53 53 52 52 51 50 49 49 48 46 47 47 47 48 48 47 46 46 46 45 45 46 47 46 45 45 40 41 42 41 39 41 39 37 33 37 35 32 31 32
56 55 53 53 52 51 52 51 50 49 48 48 47 47 47 47 48 49 47 46 45 46 45 45 46 47 47 46 44 42 39 41 40 42 40 40 39 32 34 33 31 33 32
56 55 53 53 53 53 53 52 50 49 50 50 47 47 47 48 48 48 47 46 45 46 46 46 46 46 46 45 44 41 39 37 36 37 41 41 38 30 35 34 33 34 32
Lifted_Index
-2 -2 -3 -3 -2 -2 -3 -3 -3 -3 -2 -2 -1 -0 0 0 1 1 1 2 2 3 3 4 4 4 4 4 3 3 3 3 3 2 2 3 4 4 4 3 3 3 3
-2 -2 -2 -3 -3 -3 -3 -3 -3 -3 -2 -2 -1 -0 0 1 1 1 2 3 3 3 4 4 4 5 4 4 4 4 4 4 3 2 2 3 3 3 3 3 3 3 3
-2 -2 -2 -3 -3 -3 -3 -3 -3 -3 -2 -1 -0 0 1 1 2 2 3 3 3 4 4 4 5 5 5 5 5 5 5 4 3 3 3 3 3 2 2 2 3 3 3
-1 -2 -2 -3 -3 -3 -3 -3 -3 -2 -1 -0 0 1 2 2 3 3 3 4 4 4 4 4 5 5 6 6 6 5 5 4 4 4 4 4 4 3 3 3 3 3 3
-1 -1 -2 -2 -3 -4 -3 -3 -2 -2 -1 0 1 2 2 3 3 3 4 4 4 4 4 5 5 5 5 5 5 4 4 5 5 5 5 5 5 4 4 4 4 4 4
-1 -2 -2 -3 -3 -4 -4 -3 -3 -2 -0 1 1 2 3 3 3 4 4 4 4 4 5 5 5 5 4 4 4 4 5 5 5 5 4 4 5 5 5 4 5 5 5
-2 -2 -3 -3 -3 -4 -4 -3 -3 -2 -0 1 2 2 3 3 4 4 5 5 4 4 5 5 4 4 4 4 5 5 5 6 5 4 4 4 4 5 5 5 5 5 5
-3 -3 -3 -3 -3 -4 -3 -3 -2 -1 -0 1 2 2 3 4 4 5 5 5 4 4 5 4 4 4 4 5 5 6 6 6 5 5 5 5 5 5 6 6 6 6 6
-3 -3 -3 -3 -4 -4 -3 -3 -2 -1 -0 1 1 2 3 4 5 5 5 5 4 4 5 5 4 4 4 5 6 7 7 7 6 6 6 6 6 7 7 7 7 7 7
-3 -3 -3 -3 -4 -3 -3 -2 -2 -1 0 1 2 3 4 5 6 6 5 5 4 4 5 5 4 4 4 5 6 7 7 7 7 7 7 7 7 7 7 8 8 8 8
-3 -3 -2 -3 -4 -3 -3 -2 -1 -0 1 2 3 4 5 6 6 6 5 5 4 5 5 5 5 4 5 6 7 7 7 7 8 8 8 8 7 8 8 8 8 8 9
-3 -2 -2 -3 -4 -3 -3 -2 -1 -0 1 2 4 5 6 7 7 7 6 5 5 5 5 5 5 5 6 7 7 7 8 8 8 8 8 7 7 8 8 8 9 9 9
-3 -3 -3 -3 -4 -3 -3 -2 -1 -0 1 3 4 6 7 7 7 7 6 6 6 5 5 5 6 6 7 7 7 8 8 8 8 8 8 8 8 8 9 9 9 9 9
-3 -3 -3 -4 -4 -3 -3 -2 -1 -0 2 3 5 7 7 8 8 8 7 7 6 6 6 7 7 7 7 7 8 8 8 8 8 9 9 8 8 9 9 9 9 9 9
-3 -4 -4 -4 -3 -3 -3 -2 -1 0 2 4 6 7 8 8 8 8 8 8 7 7 7 8 8 8 8 8 9 9 9 9 9 10 10 9 9 9 9 9 9 9 9
-2 -3 -4 -4 -3 -3 -3 -2 -1 1 3 5 6 8 8 8 9 9 9 9 9 8 8 9 9 9 9 9 10 10 9 9 10 10 11 10 10 10 10 10 9 9 9
-2 -3 -3 -3 -3 -2 -2 -1 -0 1 4 5 7 8 9 9 9 9 9 10 10 10 10 10 9 9 9 10 10 10 10 10 10 11 11 12 12 11 11 10 10 9 9
-2 -3 -3 -2 -1 -1 -1 -1 1 2 4 6 7 9 10 10 10 10 10 11 11 11 10 10 10 9 9 10 10 10 10 10 11 11 12 13 13 13 12 11 11 11 11
-3 -4 -3 -1 1 2 1 1 2 2 4 6 8 10 10 11 11 11 11 11 11 11 11 10 10 9 9 9 10 10 10 11 11 12 13 14 14 14 14 13 13 13 13
-5 -4 -3 -1 2 3 3 3 4 4 6 8 9 10 11 11 11 11 11 12 12 11 11 11 10 9 9 9 10 10 11 11 12 12 13 14 15 15 15 15 15 15 15
-4 -4 -3 -1 2 4 5 6 6 7 8 9 10 10 10 10 11 11 11 12 12 12 11 11 10 10 9 9 10 11 12 12 12 13 14 15 15 16 16 16 16 17 17
-3 -3 -2 -1 2 4 5 7 8 8 9 10 10 10 10 10 10 11 11 12 12 12 12 11 11 10 10 10 11 11 12 12 13 14 14 15 15 16 16 16 18 19 19
-2 -2 -2 -1 1 2 4 6 6 7 8 9 10 10 10 10 10 11 11 11 12 12 12 12 11 10 10 11 11 12 12 12 12 13 14 15 15 15 16 17 19 20 21
-2 -2 -1 -1 -0 1 3 4 5 5 6 8 9 10 10 10 10 10 11 11 12 12 12 12 11 11 11 11 11 12 12 12 12 13 13 14 15 15 16 17 19 21 21
-2 -1 -1 -1 -1 -0 1 3 4 5 5 7 8 9 10 10 10 10 11 11 11 12 12 12 11 11 11 11 11 12 12 12 12 12 13 13 14 15 16 18 20 21 21
-2 -1 -1 -0 -1 -0 0 2 3 4 5 6 7 8 9 10 10 10 10 11 11 11 12 12 11 11 11 11 11 12 12 13 12 12 12 13 14 15 16 18 20 21 21